map of KIN home
Great Circle Mapper logo
KIN - Airport
Location
City:  Kingston, Jamaica
Name:Norman Manley International Airport
ICAO / IATA:MKJP / KIN

Details
Type:Airport (Aerodrome, Airfield)
Use:Public/Civil, International (customs port of entry)
Latitude:1756'08"N (17.935667)
Longitude:7647'15"W (-76.787499)
Datum:WGS 1984
Elevation:10 ft (3 m)
Runways:1
Longest:8900 × 150 ft (2713 × 45.5 m), paved

Time
Time Zone:UTC-5
Local Time:

Weather
METAR:MKJP 010600Z 35004KT 9999 FEW024CB 28/24 Q1012
TAF:MKJP 311045Z 3112/0112 35005KT 9999 FEW022
BECMG 3114/3116 14015KT
TEMPO 3118/3121 TS SCT018 SCT020CB
BECMG 0101/0103 35005KT

Related Locations
Nearby:
Farthest:XCH: 11891 mi / 19136 km
Christmas Island, CX

Find:

   beyond  
but within

Other Information
Maps:
NOTAMs:
Links:
Sources:

  
flag of Jamaica   

Airport Diagram

Airport diagram for KIN

Airport diagram (OBSOLETE) from NGA

Sectional Chart

Flight Planning
at skyvector.com

Satellite Image

Google Maps Satellite View

 

Copyright © 2004-2014 Karl L. Swartz. All rights reserved.
The Great Circle Mapper name and logo are trademarks of the Great Circle Mapper.
All other trademarks mentioned herein belong to their respective owners.
Please see credits for attibutions and further copyright information.

  Follow gcmap on Facebook Follow gcmap on Twitter

hCard Microformat

Geo Microformat